#timestamp,LO_Frequency,Hit 
1504447215.9,286047003.7,N
1504447235.7,286047004.2,N
1504447255.5,286047005.6,N
1504447275.4,286047003.4,N
1504447295.2,286047005.7,N
1504447315.1,286047003.9,N
1504447316.0,286047003.9,N
1504447335.8,286047003.0,N
1504447355.6,286047005.9,N
1504447375.5,286047003.8,N
1504447395.3,286047003.9,N
1504447415.1,286047005.1,N
1504447435.9,286047008.4,P
1504447455.7,286047006.3,N
1504447475.6,286047004.7,N
1504447495.4,286047006.4,P
1504447515.2,286047002.4,P
1504447535.1,286047001.5,N
1504447536.0,286047001.5,N
1504447555.8,286047000.2,N
1504447575.7,286047000.0,N
1504447595.5,286047000.9,N
1504447615.3,286046998.9,N
1504447635.2,286046997.8,N
1504447655.0,286046996.7,N
1504447655.9,286046996.7,N
1504447675.8,286046997.4,N
1504447695.6,286046997.6,N
1504447715.4,286046999.5,N
1504447735.3,286047000.7,N
1504447755.1,286046998.3,N
1504447775.8,286047005.6,N
1504447795.7,286047005.6,N
1504447815.5,286047006.0,N
1504447835.4,286047003.1,N
1504447855.2,286047003.9,N
1504447875.0,286047004.1,N
1504447875.9,286047004.1,N
1504447895.8,286047005.5,P
1504447915.6,286047005.5,N
1504447935.5,286047002.9,N
1504447955.3,286047004.6,N
1504447975.1,286047004.5,N
1504447995.9,286047005.8,P
1504448015.7,286047000.1,N
1504448035.5,286046999.4,N
1504448055.4,286046996.6,N
1504448075.2,286046997.7,N
1504448095.1,286046996.8,N
1504448096.0,286046996.8,N
1504448115.8,286046997.6,N
1504448135.6,286046997.4,N
1504448155.5,286046999.3,N
1504448175.3,286046997.2,N
1504448195.1,286046995.7,N
1504448215.9,286046994.9,N
1504448235.7,286046996.6,N
1504448255.6,286046999.1,N
1504448275.4,286047000.8,N
1504448295.2,286046998.5,N
1504448315.1,286047000.3,N
1504448316.0,286047000.3,N
1504448335.8,286047002.7,N
1504448355.7,286047002.7,N
1504448375.5,286047002.0,N
1504448395.3,286047002.2,N
1504448415.2,286047004.3,N
1504448435.0,286047002.6,N
1504448435.9,286047002.6,N
1504448455.7,286046999.8,N
1504448475.6,286047002.4,N
1504448495.4,286047004.1,N
1504448515.3,286047001.7,N
1504448535.1,286047001.5,N
1504448536.0,286047001.5,N
1504448555.8,286047002.8,N
1504448575.7,286046999.7,N
1504448595.5,286047003.2,N
1504448615.3,286047001.8,N
1504448635.2,286047002.5,N
1504448655.0,286047005.4,N
1504448655.9,286047005.4,N
1504448675.8,286047003.4,N
1504448695.6,286047005.9,N
1504448715.4,286047004.6,N
1504448735.3,286047007.4,P
1504448755.1,286047004.3,N
1504448775.9,286047003.3,N
1504448795.7,286047003.3,N
1504448815.5,286047005.7,P
1504448835.4,286047000.7,N
1504448855.2,286046999.3,N
1504448875.1,286046998.1,N
1504448876.0,286046998.1,N
1504448895.8,286047000.2,N
1504448915.6,286046999.2,N
1504448935.5,286046996.9,N
1504448955.3,286046996.9,N
1504448975.1,286046998.3,N
1504448995.9,286046998.5,N
1504449015.7,286046998.5,N
1504449035.6,286046998.2,N
1504449055.4,286046998.5,N
1504449075.2,286047000.3,N
1504449095.1,286047000.7,N
1504449096.0,286047000.7,N
1504449115.8,286047000.8,N
1504449135.6,286047000.2,N
1504449155.5,286047001.9,N
1504449175.3,286047001.0,N
1504449195.2,286047000.8,N
1504449215.9,286047000.4,N
1504449235.7,286047001.1,N
1504449255.6,286047000.8,N
1504449275.4,286047001.1,N
1504449295.2,286047000.6,N
1504449315.1,286047000.7,N
1504449316.0,286047000.7,N
1504449335.8,286046998.3,N
1504449355.7,286047000.5,N
1504449375.5,286047004.3,P
1504449395.3,286047001.8,N
1504449415.2,286047004.2,N
1504449435.0,286047002.9,N
1504449435.9,286047002.9,N
1504449455.8,286047003.0,N
1504449475.6,286047004.7,P
1504449495.4,286047004.8,P
1504449515.3,286047004.9,P
1504449535.1,286047005.2,P
1504449555.9,286047002.1,P
1504449575.7,286046999.9,N
1504449595.5,286047001.8,N
1504449615.4,286047002.3,N
1504449635.2,286046999.9,N
1504449655.0,286047001.0,N
1504449656.0,286047001.0,N
1504449675.8,286047001.6,N
1504449695.6,286047000.2,N
1504449715.5,286047000.3,N
1504449735.3,286047001.2,N
1504449755.1,286046999.4,N
1504449775.9,286046998.7,N
1504449795.7,286047000.4,N
1504449815.6,286047000.1,N
1504449835.4,286046999.3,N
1504449855.2,286046999.4,N
1504449875.1,286047000.8,N
1504449876.0,286047000.8,N
1504449895.8,286046998.1,N
1504449915.6,286046999.4,N
1504449935.5,286046997.0,N
1504449955.3,286047002.7,N
1504449975.2,286046999.7,N
1504449995.9,286047000.8,N
1504450015.7,286046998.1,N
1504450035.6,286046999.9,N
1504450055.4,286047001.1,N
1504450075.2,286047002.8,N
1504450095.1,286046999.9,N
1504450096.0,286046999.9,N
1504450115.8,286047002.6,N
1504450135.7,286047002.0,N
1504450155.5,286047002.8,N
1504450175.3,286047002.1,N
1504450195.2,286047003.9,N
1504450215.0,286047003.8,N
1504450215.9,286047003.8,N
1504450235.8,286047001.8,N
1504450255.6,286047001.7,N
1504450275.4,286047001.5,N
1504450295.3,286047002.7,N
1504450315.1,286047000.6,N
1504450335.8,286046999.7,N
1504450355.7,286047001.0,N
1504450375.5,286047000.7,N
1504450395.4,286047002.1,N
1504450415.2,286047003.7,N
1504450435.0,286047003.5,N
1504450435.9,286047003.5,N
1504450455.8,286047003.4,N
1504450475.6,286047003.7,N
1504450495.4,286047003.5,N
1504450515.3,286047003.6,N
1504450535.1,286047003.9,N
1504450555.9,286047005.5,P
1504450575.7,286047002.5,N
1504450595.5,286047001.8,N
1504450615.4,286047000.1,N
1504450635.2,286047004.3,N
1504450655.1,286047000.3,N
1504450656.0,286047000.3,N
1504450675.8,286047001.0,N
1504450695.6,286047004.4,N
1504450715.5,286047002.2,N
1504450735.3,286047002.3,N
1504450755.1,286047004.4,N
1504450775.9,286047001.7,N
1504450795.7,286047004.2,N
